Welcome to the New NWS' Forecast!
Most changes are behind the scenes, but click here for differences you might notice.
Latest weather observations around

Anniston Metro Airport (KANB)

Using English Units (Switch to International System of Units)
Date/ Time (CDT) Wind (mph) Vis. (mi) Weather Sky Cond. Temp (°F) Rel. Humidity Wind Chill (°F) Heat Index (°F) Pressure Precip. (in)
Air Dwpt 6 hour Altimeter (inHg) Sea level (inHg) 1 hr 3 hr 6 hr
Max Min
Oct 18 01:53 NE 7 10 Clear CLR 59 47     64%     30.32 30.31      
Oct 18 00:53 NE 7 10 Clear CLR 60 47     62%     30.31 30.3      
Oct 17 23:53 NE 5 10 Clear CLR 60 48     64%     30.32 30.31      
Oct 17 22:53 NE 7 10 Clear CLR 62 50     65%     30.32 30.31      
Oct 17 21:53 NE 6 10 Mostly Cloudy BKN100 62 53     72%     30.31 30.3      
Oct 17 20:53 SE 3 10 Clear   59 57     93%     30.3 30.29      
Oct 17 19:53 Calm 10 Partly Cloudy SCT100 61 57     87%     30.29 30.28      
Oct 17 18:53 Calm 10 Cloudy OVC100 63 56     78%     30.28 30.27      
Oct 17 17:53 N 3 10 Mostly Cloudy BKN100 67 53     61%     30.27 30.25      
Oct 17 16:53 N 5 10 Partly Cloudy SCT100 68 51     55%     30.26 30.25      
Oct 17 15:53 NNE 7 10 Mostly Cloudy BKN110 69 47     45%     30.25 30.24      
Oct 17 14:53 N 10 10 Cloudy OVC100 69 52     54%     30.24 30.23      
Oct 17 13:53 N 9 10 Cloudy OVC080 70 54     57%     30.24 30.22      
Oct 17 12:53 3 10 Mostly Cloudy FEW023 BKN095 72 60     66%   72 30.25 30.24     0
Oct 17 11:53 NNE 7 10 Cloudy SCT018 OVC090 68 59     73%     30.28 30.27      
Oct 17 11:45 N 9 10 Cloudy BKN017 OVC085 68 59     73%     30.28        
Oct 17 11:23 N 8 10 Cloudy SCT016 OVC080 68 59     73%     30.28        
Oct 17 11:07 NNE 6 10 Cloudy BKN017 OVC050 66 59     78%     30.28        
Oct 17 10:53 NNE 7 10 Cloudy SCT014 BKN050 OVC075 66 59     78%     30.29 30.27      
Oct 17 09:53 NNE 8 10 Cloudy OVC080 65 59     81%     30.27 30.26   0  
Oct 17 09:39 NNE 8 10 Cloudy SCT014 OVC075 65 59     81%     30.27        
Oct 17 09:10 N 9 10 Cloudy SCT009 BKN014 OVC080 65 61     87%     30.27        
Oct 17 08:53 NE 5 10 Cloudy FEW009 SCT055 OVC085 65 61     87%     30.25 30.24 0    
Oct 17 08:37 NE 5 10 Cloudy SCT008 BKN055 OVC085 64 61     90%     30.25   0    
Oct 17 07:53 Calm 10 Light Rain OVC008 63 61     93%     30.24 30.23 0    
Oct 17 07:45 Calm 10 Light Rain OVC008 63 60     90%     30.24   0    
Oct 17 07:25 5 10 Cloudy OVC010 63 60     90%     30.24   0    
Oct 17 07:10 N 8 10 Light Rain OVC009 63 60     90%     30.24   0    
Oct 17 06:53 Calm 10 Cloudy OVC010 63 60     90%     30.23 30.22 0   0
Oct 17 05:53 NNE 6 10 Cloudy OVC011 64 60     87%     30.21 30.19      
Oct 17 05:12 Calm 10 Cloudy BKN010 OVC100 64 61     90%     30.19        
Oct 17 04:53 NNE 7 10 Cloudy SCT012 BKN095 OVC120 64 61     90%     30.19 30.18      
Oct 17 04:09 E 3 10 Mostly Cloudy SCT008 BKN110 65 62     90%     30.18        
Oct 17 03:53 NE 6 10 Cloudy BKN007 OVC080 65 62     90%     30.18 30.16      
Oct 17 02:53 6 10 Cloudy OVC006 65 62     90%     30.18 30.17      
Oct 17 02:11 3 10 Cloudy BKN007 OVC110 65 62     90%     30.17        
Oct 17 01:53 N 6 10 Mostly Cloudy FEW007 FEW060 BKN110 65 62     90%     30.17 30.16      
Oct 17 00:53 NE 3 10 Partly Cloudy SCT060 65 63     93%     30.15 30.14     0
Oct 16 22:53 NE 3 10 Partly Cloudy SCT100 65 63     93%     30.17 30.15      
Oct 16 21:53 ENE 3 10 Mostly Clear FEW080 66 63     90%     30.17 30.16   0  
Oct 16 20:53 ENE 6 10 Cloudy BKN031 OVC075 66 63     90%     30.17 30.16 0    
Oct 16 20:50 NE 6 10 Cloudy BKN031 OVC075 66 63     88%     30.17   0    
Oct 16 19:53 5 10 Cloudy OVC018 67 63     87%     30.19 30.18      
Oct 16 19:39 NNE 8 10 Clear   67 62     84%     30.17        
Oct 16 18:53 N 9 10 Clear   67 63     87%     30.16 30.15      
Oct 16 17:53 NNE 7 10 Cloudy OVC016 68 64     87%     30.13 30.12      
Oct 16 16:53 N 14 10 Cloudy BKN017 OVC023 71 65     81%   72 30.12 30.1      
Oct 16 15:53 NNE 6 10 Cloudy FEW020 BKN028 OVC110 74 66     76%   75 30.11 30.09      
Oct 16 14:53 NNE 5 10 Cloudy OVC017 73 65     76%   74 30.11 30.09      
Oct 16 13:53 NNE 5 10 Cloudy OVC016 72 65     79%   73 30.12 30.1      
Oct 16 12:53 N 6 10 Cloudy OVC016 72 65     79%   73 30.14 30.12     0
Oct 16 11:53 NNE 6 10 Cloudy OVC018 71 65     81%   72 30.16 30.14      
Oct 16 11:24 ENE 6 10 Cloudy SCT009 OVC020 69 64     84%     30.18        
Oct 16 10:53 ENE 7 10 Cloudy OVC009 68 64     87%     30.18 30.17      
Oct 16 09:53 ENE 8 10 Cloudy OVC008 67 64     90%     30.18 30.17   0  
Oct 16 08:53 NNE 7 10 Cloudy OVC008 65        %     30.18 30.16 0    
Oct 16 08:00 NNE 8 4 Light Rain and Fog/Mist BKN008 OVC027 65 63     93%     30.17   0    
Oct 16 07:53 N 8 2.5 Light Rain and Fog/Mist OVC006 65 63     93%     30.17 30.16 0    
Oct 16 07:51 NNE 7 2.5 Light Rain and Fog/Mist SCT004 OVC008 64 63     94%     30.17   0    
Oct 16 07:44 N 8 3 Light Rain and Fog/Mist BKN004 OVC008 65 63     93%     30.17   0    
Oct 16 07:36 N 7 1.75 Rain and Fog/Mist OVC004 64 63     96%     30.17   0    
Oct 16 06:53 N 9 7 Cloudy OVC004 65        %     30.16 30.15     0
Oct 16 06:18 N 8 9 Cloudy OVC004 66 64     93%     30.16        
Oct 16 05:53 N 6 7 Cloudy OVC005 67 65     93%     30.15 30.13      
Oct 16 04:53 N 6 8 Cloudy OVC006 68 66     93%     30.13 30.11      
Oct 16 04:29 N 7 9 Mostly Cloudy BKN007 69 66     90%     30.12        
Oct 16 04:16 N 7 10 Partly Cloudy FEW007 SCT095 SCT110 69 66     90%     30.12        
Oct 16 03:53 Calm 10 Mostly Clear FEW110 68 66     93%     30.12 30.09 0 0  
Oct 16 02:53 SSE 3 10 Mostly Cloudy BKN100 BKN120 68 66     93%     30.12 30.1      
Oct 16 01:53 SE 5 10 Mostly Cloudy BKN100 68 66     93%     30.12 30.09      
Oct 16 00:53 Calm 10 Clear CLR 68 66     93%     30.11 30.09      
Oct 15 23:53 Calm 10 Clear CLR 69 66     90%     30.12 30.1      
Oct 15 22:53 Calm 10 Clear CLR 69 66     90%     30.13 30.11      
Oct 15 21:53 Calm 10 Partly Cloudy SCT110 69 65     87%     30.15 30.13      
Oct 15 20:53 ESE 3 10 Clear CLR 70 66     87%     30.13 30.11      
Oct 15 19:53 ESE 3 10 Clear CLR 70 67     90%     30.13 30.11      
Oct 15 18:53 Calm 10 Clear CLR 72 66     82%   73 30.11 30.1      
Oct 15 17:53 Calm 10 Clear CLR 80 65     60%   82 30.1 30.07      
Oct 15 16:53 Calm 10 Clear CLR 82 64     55%   84 30.1 30.08      
Oct 15 15:53 Calm 10 Partly Cloudy SCT070 83 65     55%   85 30.1 30.07      
Oct 15 14:53 WSW 7 10 Cloudy FEW044 SCT050 OVC070 81 65     58%   83 30.1 30.07      
Oct 15 13:53 WSW 9 10 Partly Cloudy FEW042 SCT060 83 65     55%   85 30.09 30.06      
Oct 15 12:53 SSW 7 10 Mostly Clear FEW032 81 65     58%   83 30.11 30.09      
Oct 15 11:53 WSW 8 10 Mostly Cloudy SCT027 BKN048 79 66     65%   80 30.13 30.1      
Oct 15 11:16 SW 3 10 Mostly Cloudy BKN026 BKN033 79 67     67%   80 30.14        
Oct 15 10:53 Calm 10 Partly Cloudy SCT025 SCT049 77 66     69%   78 30.15 30.12      
Oct 15 10:34 Calm 10 Mostly Cloudy BKN024 BKN048 76 64     67%   76 30.15        
Oct 15 09:53 NE 5 10 Mostly Cloudy BKN044 73 63     71%   73 30.15 30.13      
Oct 15 08:53 ENE 6 10 Clear CLR 71 62     73%   71 30.15 30.13      
Oct 15 07:53 NE 3 10 Clear CLR 68 60     76%     30.13 30.11      
Oct 15 06:53 Calm 10 Clear CLR 64 58     81%     30.12 30.11      
Oct 15 05:53 NE 5 10 Clear CLR 65 58     78%     30.11 30.09      
Oct 15 04:53 ENE 7 10 Clear CLR 66 58     75%     30.09 30.07      
Oct 15 03:53 NE 6 10 Clear CLR 67 58     73%     30.09 30.07      
Oct 15 02:53 NE 6 10 Clear CLR 68 58     70%     30.09 30.06      
Notice The following observation data may not be complete
Oct 15 01:53 ENE 5 10 Mostly Clear FEW120   58      %     30.1 30.07      
Oct 15 00:53 NE 6 10 Clear CLR 69 58     68%     30.09 30.06      
Oct 14 23:53 Calm 10 Clear   70 57     63%     30.09 30.06      
Oct 14 22:53 ENE 5 10 Mostly Clear FEW120 71 58     63%   71 30.1 30.08      
Oct 14 21:53 NE 6 10 Partly Cloudy SCT120 71 59     66%   71 30.1 30.08      
Oct 14 20:53 NNE 6 10 Mostly Clear FEW120 72 59     64%   72 30.08 30.06      
Oct 14 19:53 NE 7 10 Partly Cloudy SCT120 74 58     57%   74 30.07 30.05      
Oct 14 18:53 Calm 10 Mostly Cloudy BKN120 74 58     57%   74 30.05 30.03      
Oct 14 17:53 SSE 6 10 Clear CLR 78 55     45%   78 30.04 30.02      
Oct 14 16:53 SSW 5 10 Clear CLR 82 54     38%   81 30.03 30.01      
Oct 14 15:53 S 8 10 Clear CLR 83 53     36%   82 30.03 30      
Oct 14 14:53 S 8 10 Clear CLR 83 54     37%   82 30.03 30.01      
Oct 14 13:53 S 8 10 Clear CLR 83 54     37%   82 30.03 30      
Oct 14 12:53 SW 8 10 Clear CLR 82 57     43%   82 30.05 30.02      
Oct 14 11:53 7 10 Clear CLR 79 58     49%   79 30.08 30.06      
Oct 14 10:53 E 6 10 Clear CLR 73 58     59%   73 30.09 30.08      
Oct 14 09:53 NNE 8 10 Mostly Clear FEW100 70 57     63%     30.1 30.08      
Oct 14 08:53 NE 9 10 Mostly Clear FEW110 65 55     70%     30.09 30.08      
Oct 14 07:53 NE 8 10 Mostly Clear FEW110 62 55     78%     30.06 30.06      
Oct 14 06:53 NE 8 10 Mostly Clear FEW120 61 54     78%     30.06 30.04      
Oct 14 05:53 NE 8 10 Clear CLR 61 54     78%     30.04 30.02      
Oct 14 04:53 NE 8 10 Mostly Clear FEW120 61 54     78%     30.03 30.02      
Oct 14 03:53 NE 8 10 Partly Cloudy SCT110 61 54     78%     30.02 30.01      
Oct 14 02:53 NE 6 10 Partly Cloudy SCT095 60 54     80%     30.03 30.01      
Oct 14 01:53 ENE 8 10 Clear CLR 61 53     75%     30.02 30.01      
Oct 14 00:53 ENE 8 10 Clear CLR 61 54     78%     30.02 30.01      
Oct 13 23:53 NE 7 10 Clear CLR 62 54     75%     30.02 30.01      
Oct 13 22:53 NNE 7 10 Clear CLR 62 55     78%     30.03 30.01      
Oct 13 21:53 ENE 6 10 Clear CLR 62 55     78%     30.02 30.01      
Oct 13 20:53 Calm 10 Clear CLR 63 56     78%     30.02 30.01      
Oct 13 19:53 NE 3 10 Clear CLR 64 56     75%     30 29.99      
Oct 13 18:53 Calm 10 Clear CLR 64 56     75%     29.98 29.97      
Oct 13 17:53 N 5 10 Clear CLR 70 54     57%     29.96 29.94      
Oct 13 16:53 3 10 Clear CLR 73 53     50%   72 29.96 29.95      
Oct 13 15:53 WSW 3 10 Mostly Clear FEW044 74 54     50%   73 29.96 29.95      
Oct 13 14:53 NE 5 10 Mostly Cloudy BKN043 76 55     48%   75 29.97 29.95      
Oct 13 13:53 S 5 10 Mostly Cloudy BKN041 72 53     51%   71 29.97 29.96      
Oct 13 12:53 SE 5 10 Partly Cloudy SCT042 70 52     53%     30 29.99      
Oct 13 11:53 SE 5 10 Clear CLR 68 50     53%     30.02 30.01      
Oct 13 10:53 Calm 10 Clear CLR 68 50     53%     30.02 30.02      
Oct 13 09:53 NE 7 10 Clear CLR 66 49     54%     30.03 30.02      
Oct 13 08:53 N 5 10 Clear CLR 64 48     56%     30.02 30.01      
Oct 13 04:53 SSW 3 10 Cloudy OVC060 57 52     83%     29.95 29.94      
Oct 12 23:53 Calm 10 Cloudy BKN090 OVC110 55 52     89%     29.94 29.93      
Oct 12 20:53 W 3 10 Clear CLR 55 50     83%     29.95 29.95      
Oct 12 18:53 Calm 10 Clear CLR 59 50     72%     29.91 29.91      
Oct 12 16:53 5 10 Clear CLR 72 43     35%   71 29.91 29.9      
Oct 12 10:53 NNE 8 10 Clear CLR 64 43     46%     30 29.99      
Oct 12 07:53 N 7 10 Clear CLR 53 44     71%     30.01 30.01      
Oct 12 06:53 N 7 10 Clear CLR 52 43     71%     30 29.99      
Oct 12 00:53 Calm 10 Clear CLR 59 49     69%     30 29.98      
May 14 23:53 Calm 10 Clear CLR 73 68     84%   74 29.98 29.94      
May 14 10:53 N 7 10 Mostly Clear FEW055 88 63     43%   89 30.05 30.02      
May 13 07:53 E 3 10 Clear CLR 67 62     84%     30.16 30.14      
May 13 01:53 Calm 10 Clear CLR 63 60     90%     30.08 30.06      
May 12 13:53 7 10 Clear CLR 89 56     33%   87 30.12 30.1      
May 12 01:53 Calm 10 Clear CLR 64 61     90%     30.1 30.07      
Notice The following observation data may not be complete
May 11 19:53 Calm 10 Clear CLR   63      %     30.08 30.06      
Jun 11 20:53 Calm 10 Partly Cloudy SCT048 SCT080 80 70     71%   83 30.11 30.08      
Jun 11 08:33 ENE 5 10 Partly Cloudy SCT018 76 69     79%   77 30.19        
Jun 10 18:53 SSE 5 10 Clear CLR 83 62     49%   84 30.05 30.03      
Jun 09 15:53 WSW 8 10 Clear CLR 83 57     41%   82 29.95 29.93      
Jun 09 00:53 Calm 10 Clear CLR 64 60     87%     29.92 29.9